DW4393 Weather Reports


Display with metric or nautical units.
time (UTC)temp
F
wind
direction
speed
MPH
gust
MPH
rain 1hr
in
rain 24hr
in
rain mn
in
humidity
%
barometer
mb
20260901063802 71 206 0.0 0.0 0.00 0.00 0.00 93 1018.2
20260901063303 71 206 0.0 0.0 0.00 0.00 0.00 93 1018.1
20260901061303 71 206 0.0 0.0 0.00 0.00 0.00 93 1018.3
20260901060802 71 206 0.0 0.0 0.00 0.00 0.00 93 1018.4
20260901060303 71 206 0.0 0.0 0.00 0.00 0.00 93 1018.5
20260901054803 71 206 0.0 0.0 0.00 0.00 0.00 93 1018.5
20260901054303 72 206 0.0 0.0 0.00 0.00 0.00 93 1018.5
20260901053803 72 206 0.0 0.0 0.00 0.00 0.00 93 1018.5
20260901050803 72 206 0.0 0.0 0.00 0.00 0.00 93 1018.6
20260901050303 72 206 0.0 0.0 0.00 0.00 0.00 92 1018.5
20260901044803 72 314 0.0 0.0 0.00 0.00 0.00 92 1018.5
20260901044303 72 314 0.0 0.0 0.00 0.00 0.00 92 1018.4
20260901043303 73 314 0.0 0.0 0.00 0.00 0.00 92 1018.5
20260901041803 73 314 0.0 0.0 0.00 0.00 0.00 92 1018.5
20260901041303 73 314 0.0 0.0 0.00 0.00 0.00 92 1018.4
20260901040821 73 314 0.0 0.0 0.00 0.00 0.00 92 1018.5
20260901040303 73 314 0.0 0.0 0.00 0.00 0.00 91 1018.4
20260901034803 73 314 0.0 0.0 0.00 0.00 0.00 91 1018.5
20260901034303 74 314 0.0 0.0 0.00 0.00 0.00 91 1018.6
20260901033803 74 314 0.0 0.0 0.00 0.00 0.00 91 1018.5
20260901033303 74 314 0.0 0.0 0.00 0.00 0.00 91 1018.5
20260901031303 74 314 0.0 0.0 0.00 0.00 0.00 90 1018.4
20260901030804 74 314 0.0 0.0 0.00 0.00 0.00 90 1018.4
20260901030303 74 314 0.0 0.0 0.00 0.00 0.00 90 1018.4
20260901024304 75 314 0.0 0.0 0.00 0.00 0.00 89 1018.3
20260901023803 75 314 0.0 0.0 0.00 0.00 0.00 89 1018.4
20260901021803 76 314 0.0 0.0 0.00 0.00 0.00 88 1018.2
20260901021303 76 314 0.0 0.0 0.00 0.00 0.00 88 1018.2
20260901020305 76 314 0.0 0.0 0.00 0.00 0.00 87 1018.1
20260901014303 76 314 0.0 0.0 0.00 0.00 0.00 87 1018.1
20260901013803 76 314 0.0 0.0 0.00 0.00 0.00 86 1018.0
20260901013303 77 314 0.0 0.0 0.00 0.00 0.00 86 1018.0
20260901011804 77 314 0.0 0.0 0.00 0.00 0.00 85 1017.8
20260901010803 78 314 0.0 0.0 0.00 0.00 0.00 84 1017.7
20260901010303 78 314 0.0 0.0 0.00 0.00 0.00 83 1017.6
20260901004803 78 314 0.0 0.0 0.00 0.00 0.00 83 1017.4
20260901004302 79 314 0.0 0.0 0.00 0.00 0.00 82 1017.4
20260901003803 79 314 0.0 0.0 0.00 0.00 0.00 82 1017.3
20260901003303 80 314 0.0 0.0 0.00 0.00 0.00 81 1017.3
20260901001804 81 314 0.0 0.0 0.00 0.00 0.00 78 1017.3
20260901001303 81 314 0.0 0.0 0.00 0.00 0.00 77 1017.2
20260901000803 81 314 0.0 0.0 0.00 0.00 0.00 76 1017.3
20260901000303 82 314 0.0 0.0 0.00 0.00 0.00 74 1017.2
20260831234803 83 314 0.0 0.0 0.00 0.00 0.00 72 1017.2
20260831234303 83 314 0.0 0.0 0.00 0.00 0.00 72 1017.1
20260831233803 84 314 0.0 0.0 0.00 0.00 0.00 70 1017.1
20260831233303 84 314 0.0 0.0 0.00 0.00 0.00 69 1017.1
20260831231803 85 314 0.0 0.0 0.00 0.00 0.00 67 1017.0
20260831231303 85 314 0.0 0.0 0.00 0.00 0.00 64 1017.0
20260831230803 86 314 0.0 0.0 0.00 0.00 0.00 63 1017.0
20260831230303 86 314 0.0 0.0 0.00 0.00 0.00 62 1017.1
20260831224804 87 314 0.0 0.0 0.00 0.00 0.00 60 1017.3
20260831223803 87 314 0.0 0.0 0.00 0.00 0.00 59 1017.3
20260831223303 88 314 0.0 0.0 0.00 0.00 0.00 58 1017.3
20260831221803 89 314 0.0 0.0 0.00 0.00 0.00 55 1017.3
20260831221303 89 314 0.0 0.0 0.00 0.00 0.00 53 1017.4
20260831220803 89 314 0.0 0.0 0.00 0.00 0.00 53 1017.3
20260831220303 89 314 0.0 0.0 0.00 0.00 0.00 54 1017.4
20260831213803 89 138 0.0 0.0 0.00 0.00 0.00 54 1017.5
20260831213303 89 138 0.0 0.0 0.00 0.00 0.00 53 1017.5
20260831211803 90 138 0.0 0.0 0.00 0.00 0.00 51 1017.6
20260831211303 90 128 0.0 0.0 0.00 0.00 0.00 51 1017.6
20260831210803 90 98 0.0 0.0 0.00 0.00 0.00 52 1017.6
20260831210303 91 103 0.0 0.0 0.00 0.00 0.00 51 1017.5
20260831204803 91 49 0.0 0.0 0.00 0.00 0.00 49 1017.8
20260831204303 92 49 0.0 0.0 0.00 0.00 0.00 47 1018.0
20260831203803 92 49 0.0 0.0 0.00 0.00 0.00 50 1017.9
20260831203303 92 44 0.0 0.0 0.00 0.00 0.00 49 1017.9
20260831201804 92 107 0.0 0.0 0.00 0.00 0.00 51 1017.9
20260831200803 92 238 0.0 0.0 0.00 0.00 0.00 49 1018.1
20260831200303 92 95 0.0 0.0 0.00 0.00 0.00 49 1018.1
20260831194803 92 343 0.0 0.0 0.00 0.00 0.00 48 1018.3
20260831194303 92 259 0.0 0.0 0.00 0.00 0.00 51 1018.3
20260831193803 92 277 0.0 0.0 0.00 0.00 0.00 50 1018.2
20260831191803 92 308 0.0 0.0 0.00 0.00 0.00 55 1018.5
20260831191303 91 240 0.0 0.0 0.00 0.00 0.00 52 1018.5
20260831190803 90 230 0.0 0.0 0.00 0.00 0.00 53 1018.7
20260831190307 89 181 0.0 0.0 0.00 0.00 0.00 58 1018.7
20260831184803 87 84 0.0 0.0 0.00 0.00 0.00 63 1019.0
20260831183304 88 67 0.0 0.0 0.00 0.00 0.00 59 1019.0
20260831181803 88 121 0.0 0.0 0.00 0.00 0.00 58 1019.2
20260831180804 87 278 0.0 0.0 0.00 0.00 0.00 60 1019.3
20260831180303 87 278 0.0 0.0 0.00 0.00 0.00 64 1019.4
20260831174804 89 5 0.0 0.0 0.00 0.00 0.00 58 1019.5
20260831174303 88 5 0.0 0.0 0.00 0.00 0.00 58 1019.6
20260831171804 88 132 0.0 0.0 0.00 0.00 0.00 62 1019.8
20260831171303 88 118 0.0 0.0 0.00 0.00 0.00 63 1019.9
20260831170803 87 118 0.0 0.0 0.00 0.00 0.00 64 1020.0
20260831164804 85 234 0.0 0.0 0.00 0.00 0.00 71 1020.3
20260831164303 85 234 0.0 0.0 0.00 0.00 0.00 71 1020.2
20260831163803 84 234 0.0 0.0 0.00 0.00 0.00 69 1020.3
20260831163305 82 234 0.0 0.0 0.00 0.00 0.00 81 1020.2
20260831161805 83 234 0.0 0.0 0.00 0.00 0.00 77 1020.6